COSMOS 1275 DEB, 12692

Orbit data source: Space-Track

COSMOS 1275 DEB, 12692 is space debris in LEO originally from a launch on Thu, 04 Jun 1981 UTC launched from the Plesetsk Missile And Space Complex (PKMTR). Debris objects in space refer to the collection of defunct objects orbiting the Earth. Examples of debris include non-operational satellites, rocket bodies, and fragments generated from explosions, collisions, or faulty payload assembly.

Loading next visibility...
Identifier
12692, 1981-053AL
Orbit
LEO
Last TLE update
11 hours ago
Origin
Manufacturer
Unknown
Mission
Spacecraft
Bus & Motor
Unknown
Mass
Unknown
Launch date (UTC)
1981-06-04 (44 years ago)
Launch vehicle
Unknown
Launch site
Plesetsk Missile And Space Complex (PKMTR)
Object type
Payload
Rocket body
Debris
Shape & HBR
Unknown
Radar Cross Section
0.500 m², Medium (>0.1 m² and < 1m²)

Expand to show TLE details & history

TLE from 11 hours ago
0 COSMOS 1275 DEB
1 12692U 81053AL  25188.38331660  .00001030  00000-0  36651-3 0  9999
2 12692  82.8980 316.8884 0067152 347.6884  12.2659 14.32299925268632
Epoch: 2025-07-07T09:11Z
TLE epoch observation values (Epoch: 2025-07-07T09:11:58.554Z)
Latitude
-0.00002°
Longitude
-106.69902°
Altitude
740.039 km
Speed
7.509 km/s
True Right ascension
21h 07m 33s
True Declination
0° 00' 00"
Sunlit
Object was in full shadow at epoch
Visualization orbit readout
Latitude
-19.65409°
Longitude
75.46244°
Altitude
831.698 km
Speed
7.415 km/s
Apparent Right ascension
11h 24m 02s
Apparent Declination
-69° 24' 36"
Sunlit
Object is in daylight
Visualization observer readout
Local Sidereal Time
08:15:10
Azimuth
163.498° S
Elevation
-24.675°
Doppler factor
1
Orbital elements
Apogee altitude
829.201 km
Perigee altitude
733.049 km
Semi-major axis
7,159.262 km
Eccentricity
0.00672
Inclination
82.898°
RAAN
316.8884°
Arg. of periapsis
347.6884°
True anomaly
Unknown
Mean anomaly
12.2659°
Eccentric anomaly
Unknown
Mean motion
3.58295 °/min
Orbital period
100.48 mins
BSTAR
0.00036651
Loading maneuver chart data...
Loading SW <> Apogee altitude chart data...
Loading historical data...
Loading historical data...
Loading historical data...
Loading historical data...
Loading historical data...
Loading historical data...
Loading historical data...

COSMOS 1275 DEB Visibility forecast

Observer location: undefined°, undefined°

Span
Click to sort rows by Start time (UTC) header in descending order
Start Az.
Max El. time (UTC)
Max El. Az.
Max El.
End time (UTC)
End Az.
8 mins2025-07-07 21:31:27.841Z323.512° NNW2025-07-07 21:35:27.841Z268.141° W24.373°2025-07-07 21:39:27.841Z218.761° SW
7 mins2025-07-08 08:48:27.841Z151.216° SSE2025-07-08 08:51:27.841Z86.419° E34.888°2025-07-08 08:55:27.841Z23.213° NE
6 mins2025-07-08 10:30:27.841Z254.719° W2025-07-08 10:32:27.841Z282.341° WNW18.297°2025-07-08 10:36:27.841Z333.863° NNW
6 mins2025-07-08 19:19:27.841Z35.807° NE2025-07-08 19:22:27.841Z77.922° E20.426°2025-07-08 19:25:27.841Z115.664° SE
|